TimeCDT,TemperatureF,Dew PointF,Humidity,Sea Level PressureIn,VisibilityMPH,Wind Direction,Wind SpeedMPH,Gust SpeedMPH,PrecipitationIn,Events,Conditions,WindDirDegrees,DateUTC
12:17 AM,60.8,57.2,88,30.01,1.8,SW,10.4,18.4,0.11,Rain-Thunderstorm,Heavy Thunderstorms and Rain,230,2013-03-19 05:17:00
12:23 AM,60.8,57.2,88,30.01,2.0,WSW,5.8,18.4,0.17,Rain-Thunderstorm,Heavy Thunderstorms and Rain,250,2013-03-19 05:23:00
12:37 AM,60.8,57.2,88,29.98,4.0,NNW,6.9,-,0.23,Rain-Thunderstorm,Heavy Thunderstorms and Rain,340,2013-03-19 05:37:00
12:53 AM,60.1,57.0,90,29.88,5.0,NNE,20.7,-,0.28,Rain-Thunderstorm,Rain,30,2013-03-19 05:53:00
1:15 AM,60.8,57.2,88,29.85,10.0,Calm,Calm,-,0.00,,Scattered Clouds,0,2013-03-19 06:15:00
1:53 AM,61.0,55.9,83,29.92,10.0,West,12.7,21.9,0.00,,Clear,260,2013-03-19 06:53:00
2:00 AM,60.8,57.2,88,29.94,10.0,Variable,5.8,18.4,N/A,,Scattered Clouds,0,2013-03-19 07:00:00
2:53 AM,59.0,55.9,90,29.94,10.0,Calm,Calm,-,N/A,,Clear,0,2013-03-19 07:53:00
3:53 AM,59.0,55.0,87,29.96,10.0,North,6.9,-,N/A,,Overcast,350,2013-03-19 08:53:00
4:23 AM,59.0,53.6,82,29.98,10.0,North,8.1,-,N/A,,Overcast,350,2013-03-19 09:23:00
4:53 AM,57.9,54.0,87,29.98,10.0,North,6.9,-,N/A,,Overcast,360,2013-03-19 09:53:00
5:11 AM,57.2,53.6,88,30.00,10.0,North,6.9,-,N/A,,Overcast,350,2013-03-19 10:11:00
5:40 AM,57.2,53.6,88,30.01,10.0,North,4.6,-,N/A,,Overcast,350,2013-03-19 10:40:00
5:53 AM,57.9,54.0,87,30.01,10.0,Variable,5.8,-,N/A,,Overcast,0,2013-03-19 10:53:00
6:30 AM,57.2,51.8,82,30.04,10.0,North,9.2,-,N/A,,Overcast,360,2013-03-19 11:30:00
6:50 AM,55.4,51.8,88,30.05,10.0,North,9.2,17.3,N/A,,Overcast,350,2013-03-19 11:50:00
6:53 AM,55.9,50.0,80,30.04,10.0,North,8.1,17.3,N/A,,Overcast,350,2013-03-19 11:53:00
7:37 AM,55.4,50.0,82,30.06,10.0,North,6.9,-,N/A,,Overcast,360,2013-03-19 12:37:00
7:53 AM,54.0,48.9,83,30.06,10.0,North,11.5,20.7,N/A,,Overcast,10,2013-03-19 12:53:00
8:23 AM,55.4,48.2,77,30.07,10.0,NNE,8.1,-,N/A,,Scattered Clouds,20,2013-03-19 13:23:00
8:53 AM,55.9,48.0,75,30.07,10.0,NNE,10.4,-,N/A,,Partly Cloudy,30,2013-03-19 13:53:00
9:53 AM,59.0,48.9,69,30.08,10.0,ENE,8.1,-,N/A,,Clear,60,2013-03-19 14:53:00
10:53 AM,62.1,48.9,62,30.07,10.0,Variable,5.8,16.1,N/A,,Clear,0,2013-03-19 15:53:00
11:53 AM,66.9,50.0,54,30.06,10.0,ENE,5.8,-,N/A,,Clear,60,2013-03-19 16:53:00
12:53 PM,70.0,46.9,44,30.05,10.0,East,6.9,-,N/A,,Clear,80,2013-03-19 17:53:00
1:53 PM,73.0,46.0,38,30.03,10.0,Variable,4.6,-,N/A,,Clear,0,2013-03-19 18:53:00
2:53 PM,75.0,41.0,29,30.01,10.0,NE,6.9,-,N/A,,Clear,50,2013-03-19 19:53:00
3:53 PM,75.0,36.0,24,30.00,10.0,Variable,5.8,-,N/A,,Clear,0,2013-03-19 20:53:00
4:53 PM,75.9,37.0,24,29.99,10.0,NNE,8.1,-,N/A,,Clear,30,2013-03-19 21:53:00
5:53 PM,73.0,36.0,26,29.99,10.0,NNE,9.2,-,N/A,,Clear,20,2013-03-19 22:53:00
6:53 PM,66.9,36.0,32,30.00,10.0,North,5.8,-,N/A,,Clear,10,2013-03-19 23:53:00
7:53 PM,59.0,42.1,53,30.01,10.0,Calm,Calm,-,N/A,,Clear,0,2013-03-20 00:53:00
8:53 PM,55.0,45.0,69,30.03,10.0,Calm,Calm,-,N/A,,Clear,0,2013-03-20 01:53:00
9:53 PM,55.0,44.1,67,30.04,10.0,Calm,Calm,-,N/A,,Clear,0,2013-03-20 02:53:00
10:53 PM,57.0,36.0,45,30.05,10.0,NNE,4.6,-,N/A,,Clear,30,2013-03-20 03:53:00
11:53 PM,55.9,34.0,44,30.05,10.0,NNE,4.6,-,N/A,,Clear,30,2013-03-20 04:53:00